Location: Littleport
(52.4500°N, 0.3000°E)
Time: 17:09:29
(UTC+00:00)

Daily predictions for brighter satellites

Satellite Brightness Start Highest point End
(mag) Time Altitude Azimuth Time Altitude Azimuth Time Altitude Azimuth
NOSS 0 Rocket 4.0 17:31:43 10° NNW 17:38:02 82° ENE 17:44:16 10° SE
ARIANE 6 FM1 Upper Stage 3.8 17:37:50 10° NW 17:41:13 26° NNE 17:44:34 10° ENE
SMAP 4.1 17:38:53 10° S 17:43:25 52° W 17:48:00 10° NNW
NOSS 3-4 (A) 3.8 17:37:24 10° NW 17:43:45 62° NE 17:51:16 10° ESE
NOSS 3-4 (C) 3.8 17:37:40 10° NW 17:44:02 61° NE 17:51:33 10° ESE
Thor Agena Rocket 4.2 17:39:46 10° S 17:44:48 62° WSW 17:49:57 10° NNW
Cosmos 1725 Rocket 4.2 17:38:37 10° NNW 17:44:53 85° W 17:51:10 10° S
IRS-1C 4.3 17:41:09 10° SSE 17:46:29 80° WSW 17:51:51 10° NNW
Cosmos 2151 Rocket 3.6 17:44:09 10° N 17:48:41 80° ENE 17:53:11 10° SSE
Meteor 1-11 4.2 17:47:12 10° S 17:52:47 68° E 17:58:30 10° NNE
Cosmos 1607 3.9 17:49:41 10° SSW 17:55:46 73° SE 18:01:59 10° NE
Cosmos 2082 Rocket 4.4 17:52:18 10° WNW 17:55:59 17° NNW 17:59:41 10° NNE
Radarsat Rocket 4.1 17:50:25 10° SE 17:56:12 59° ENE 18:02:32 10° NNW
Cosmos 1455 Rocket 3.6 17:52:17 10° N 17:56:15 35° ENE 18:00:12 10° SE
UNK 4.0 17:52:11 10° NNE 17:56:45 73° WNW 18:01:18 10° SSW
Cosmos 2228 4.1 17:55:41 10° NNE 17:59:04 23° ENE 18:02:26 10° ESE
COSMO-SKYMED 1 3.2 17:56:11 10° NNE 17:59:54 31° E 18:03:35 10° SSE
YAOGAN 1 2.5 17:56:15 10° SSE 18:00:27 64° ENE 18:04:42 10° N
Cosmos 1975 Rocket 4.4 17:57:52 10° SE 18:00:41 17° E 18:03:31 10° NE
ATLAS 2AS CENTAUR R/B 3.6 17:54:13 10° W 18:00:42 40° NNW 18:07:05 10° NE
Cosmos 1782 4.1 17:58:33 10° NNE 18:00:52 16° ENE 18:03:10 10° ESE
PSLV R/B 3.8 17:57:24 10° SE 18:01:18 42° ENE 18:05:10 10° N
Cosmos 2297 Rocket 2.7 17:57:20 10° S 18:02:30 38° ESE 18:07:41 10° NE
Lacrosse 5 rocket 1.2 17:59:39 10° WSW 18:03:07 62° NNW 18:06:24 12° ENE
DNEPR-1 R/B 4.1 17:59:14 10° NW 18:03:46 51° NE 18:09:07 10° ESE
Cosmos 2061 Rocket 4.1 18:00:07 10° N 18:06:34 86° E 18:12:53 10° S
Aureole 3 Rocket 2.7 18:02:44 10° N 18:06:50 53° ENE 18:10:03 10° SSE
SPOT 1/Viking Rocket 3.8 18:02:23 10° S 18:07:29 73° WSW 18:12:38 10° NNW
Meteor 2-1 Rocket 4.4 18:03:10 10° NNW 18:09:00 90° E 18:14:55 10° S
CZ-2D R/B 3.3 18:06:23 10° SSE 18:10:17 68° ENE 18:14:18 10° N
Cosmos 2292 Rocket 4.2 18:08:23 10° SW 18:11:10 39° WNW 18:14:17 10° N
Okean 1 Rocket 3.0 18:07:16 10° N 18:11:43 88° E 18:16:04 10° S
Cosmos 1356 Rocket 4.1 18:08:16 10° NNW 18:12:08 55° W 18:16:01 10° S
SL-16 R/B 3.8 18:06:33 10° N 18:12:19 42° WNW 18:18:05 10° SW
CZ-4C R/B 1.8 18:08:59 10° SW 18:13:20 80° SE 18:19:00 10° NE
Cosmos 1464 Rocket 4.4 18:09:56 10° N 18:15:58 42° ENE 18:21:53 10° SE
Okean 2 Rocket 3.3 18:12:33 10° NNW 18:16:58 73° W 18:21:18 10° S
Cosmos 2221 Rocket 3.5 18:16:15 10° S 18:20:42 70° E 18:25:12 10° NNE
Cosmos 1378 Rocket 4.3 18:17:09 10° SSW 18:21:22 54° WNW 18:25:35 10° N
USA 267 3.3 18:15:08 11° ENE 18:21:28 88° SSE 18:28:03 10° WSW
SJ-6B 3.1 18:22:02 10° SE 18:25:10 34° ENE 18:28:19 10° N
Cosmos 1980 3.9 18:23:36 10° NNW 18:29:16 74° WSW 18:34:53 10° SSE
Cosmos 1867 4.2 18:24:45 10° WSW 18:30:06 55° NW 18:35:29 10° NE
Cosmos 2263 Rocket 3.5 18:27:26 10° SE 18:31:13 19° E 18:31:43 18° E
Cosmos 1025 Rocket 3.2 18:26:58 10° SSW 18:31:16 75° WNW 18:35:38 10° N
Sich 1 Rocket 4.1 18:27:26 10° NNW 18:31:57 65° W 18:36:27 10° S
COSMOS 2428 4.4 18:27:08 10° NW 18:32:21 37° WSW 18:37:32 10° S
Cosmos 2237 Rocket 2.5 18:28:52 10° NNW 18:34:33 74° WSW 18:40:13 10° SSE
ATLAS CENTAUR R/B 2.9 18:34:27 10° N 18:35:20 11° NNE 18:35:32 11° NNE
Meteor 1-31 Rocket 3.6 18:36:36 24° ENE 18:36:37 24° ENE 18:39:30 10° N
SKYMED 2 3.8 18:32:17 10° N 18:36:39 72° WNW 18:40:58 10° SSW
Meteor 1-27 4.2 18:31:18 10° NNW 18:37:07 79° ENE 18:42:57 10° SSE
SeaSat 1 4.2 18:38:38 10° S 18:43:05 34° WSW 18:47:34 10° NW
Cosmos 1570 Rocket 4.0 18:38:35 10° S 18:43:46 61° ESE 18:48:58 10° NNE
Resurs 01 Rocket 1.5 18:40:06 10° SSE 18:44:29 82° ENE 18:48:56 10° NNW
SPOT 5 3.4 18:45:52 19° ESE 18:48:56 39° ENE 18:53:40 10° N
NOSS 3-3 (C) 3.8 18:44:50 10° SW 18:50:13 86° NW 18:55:59 14° NE
DMSP B5D1-3 4.5 18:47:17 10° NNE 18:52:22 62° ESE 18:57:25 10° S
Tiangong 0.5 18:55:00 10° S 18:55:32 10° S 18:55:41 10° SSE
SL-16 R/B 2.2 18:54:51 10° NNW 19:00:30 62° NE 19:03:58 24° SE
Cosmos 2227 Rocket 2.4 18:56:22 10° S 19:01:43 46° ESE 19:05:16 21° NE
Cosmos 773 Rocket 3.9 18:59:25 10° SSW 19:04:39 70° ESE 19:09:56 10° NNE
Cosmos 2208 Rocket 3.9 18:59:41 10° SSW 19:04:53 66° ESE 19:10:11 10° NNE
Cosmos 1346 Rocket 4.2 19:01:28 10° SSE 19:02:50 21° SSE 19:02:50 21° SSE
CARTOSAT-1 4.4 19:01:16 10° S 19:05:21 49° W 19:09:28 10° NNW
Tsikada Rocket 4.5 19:03:27 10° SSE 19:08:54 34° E 19:14:23 10° NNE
CZ-4 R/B 2.0 19:17:56 35° NNE 19:17:56 35° NNE 19:20:29 10° N
NOSS 3-3 (A) 4.3 19:11:59 10° WSW 19:17:22 60° NW 19:22:16 18° NE
Okean O Rocket 3.7 19:20:31 14° NNE 19:20:31 14° NNE 19:21:34 10° NNE
ARIANE 6 FM1 Upper Stage 2.3 19:16:47 10° NW 19:20:45 78° NE 19:21:05 70° E
CZ-4B R/B 3.4 19:26:08 44° ENE 19:26:27 45° ENE 19:31:29 10° N
Cosmos 1544 Rocket 3.4 19:24:37 10° N 19:28:59 81° ENE 19:30:02 51° SSE
Terra 2.8 19:30:49 31° NNE 19:30:49 31° NNE 19:33:52 10° N
Cosmos 1816 Rocket 4.3 19:24:43 10° S 19:30:52 82° E 19:37:09 10° NNE
CZ-4B DEB 4.1 19:29:06 38° SE 19:31:10 67° ENE 19:36:35 10° NNW
CSL-04 Debris 4.0 19:30:41 25° SSE 19:33:57 82° ENE 19:39:24 10° NNW
Cosmos 2034 Rocket 3.9 19:27:44 10° N 19:33:57 89° E 19:40:10 10° S
COSMO-SKYMED 1 4.2 19:31:29 10° N 19:35:10 32° WNW 19:38:51 10° SW
Cosmos 1782 3.3 19:32:23 10° NNW 19:35:54 51° W 19:37:19 30° SSW
Cosmos 2228 4.0 19:32:15 10° NNW 19:36:15 45° W 19:40:14 10° SSW
TSX-5 4.1 19:31:18 10° NW 19:36:42 88° NE 19:37:23 66° SE
RESURS DK-1 3.7 19:33:20 10° NNW 19:35:40 27° N 19:35:40 27° N
Cosmos 1975 Rocket 3.4 19:33:38 10° SSW 19:37:56 62° WNW 19:42:15 10° N
CSL-04 Rocket 3.5 19:35:11 23° SSE 19:38:36 87° WSW 19:43:55 10° NNW
Lacrosse 5 rocket 2.2 19:36:59 10° WNW 19:39:50 36° NNW 19:39:50 36° NNW
Cosmos 44 Rocket 3.3 19:35:32 10° SW 19:40:30 85° NW 19:41:49 51° NE
Cosmos 1634 Rocket 3.9 19:35:02 10° N 19:41:20 63° ENE 19:43:02 47° SE
MOS 1 4.2 19:41:22 55° ESE 19:42:11 62° ENE 19:47:49 10° N
Cosmos 2297 Rocket 3.0 19:40:57 10° SW 19:46:26 49° NW 19:51:39 12° NNE
Cosmos 1943 3.2 19:42:46 10° NNW 19:48:25 58° NE 19:48:32 58° ENE
ATLAS 2AS CENTAUR R/B 3.7 19:47:10 10° WNW 19:53:15 33° N 19:55:21 27° NE
BREEZE-M DEB (TANK) 4.1 19:37:16 10° WSW 19:54:58 56° S 19:56:30 47° SE
ERS-1 Rocket 3.2 20:02:08 57° N 20:02:08 57° N 20:06:12 10° NNW
CZ-4C R/B 3.3 19:57:37 10° W 20:02:09 36° NNW 20:04:22 27° NNE
Cosmos 1603 4.5 19:57:31 10° NNW 20:01:51 38° NNE 20:01:51 38° NNE
Cosmos 972 Rocket 3.9 19:58:01 10° NNW 20:02:46 82° NNW 20:02:46 82° NNW
BREEZE-M DEB (TANK) 4.5 19:58:15 10° SW 20:03:11 50° SE 20:04:47 46° ESE
Cosmos 2279 Rocket 3.9 19:57:35 10° N 20:03:21 62° NE 20:03:21 62° NE
USA 267 3.5 20:02:28 45° NE 20:04:22 62° N 20:10:48 10° W
Feng Yun 1-1 Rocket 4.5 20:09:36 48° S 20:11:16 73° WSW 20:17:12 10° NNW
Cosmos 2263 Rocket 2.3 20:08:40 10° SSW 20:13:31 66° SSW 20:13:31 66° SSW
PAYLOAD B 4.5 20:18:16 56° SSW 20:19:12 66° WSW 20:24:49 10° NNW
ADEOS 3.9 20:23:44 64° WNW 20:23:44 64° WNW 20:28:23 10° NNW
SPOT 5 4.3 20:24:55 26° SW 20:26:53 37° W 20:31:37 10° NNW
Cosmos 2344 3.3 20:25:38 10° SW 20:33:15 88° SE 20:33:48 79° NE
Cosmos 1833 Rocket 4.5 20:28:59 10° NNW 20:31:47 21° N 20:31:47 21° N
SL-16 R/B 3.9 20:39:28 10° NW 20:44:13 29° WSW 20:45:53 24° SW
Cosmos 2227 Rocket 3.3 20:40:31 10° WSW 20:45:51 41° NW 20:47:09 36° NNW
CZ-4 R/B 4.3 20:52:56 14° WNW 20:52:56 14° WNW 20:53:50 10° NW
Okean O Rocket 4.2 20:57:45 15° NNW 20:57:45 15° NNW 20:58:31 10° NNW
Terra 4.0 21:09:26 22° NW 21:09:26 22° NW 21:11:25 10° NNW
ATLAS 2AS CENTAUR R/B 4.0 21:38:52 10° NW 21:42:46 34° NNW 21:42:46 34° NNW
USA 267 4.4 21:49:49 37° WNW 21:49:49 37° WNW 21:53:35 10° WNW
CZ-4C R/B 4.4 21:46:59 10° NW 21:49:19 22° NNW 21:49:19 22° NNW
